Theta_e
324 324 322 324 322 323 322 322 321 322 321 322 321 323 322 319 320 322 320 323 323 325 322 322 321 321 321 323 322 322 322 322 322 323 323 323 323 322 317 319 322 325 328 331 332 333 334 334 333 334 334 335 334 335 335 335 334 333 332 334 333 332 332 332 331 330 331 331 331 331 331 329 329 330 328 327 327 327 326 327 327 327 326 327 326
325 324 324 323 322 322 322 323 323 322 321 323 321 322 325 322 321 322 323 324 324 324 321 322 322 321 320 321 321 320 320 320 321 321 322 323 323 322 316 317 319 323 326 327 330 332 332 332 332 333 334 334 334 334 333 333 334 334 332 332 333 334 332 332 332 331 331 332 332 332 331 330 330 330 330 330 328 328 327 327 327 327 327 327 327
325 325 324 325 323 322 322 321 322 322 321 322 320 323 323 324 325 325 325 324 324 322 321 323 323 322 321 320 324 322 321 320 320 320 321 322 322 323 322 315 317 319 322 325 327 329 330 331 331 332 333 334 334 334 333 334 334 333 333 334 333 333 333 332 333 332 333 332 332 330 332 331 330 330 330 330 329 329 329 328 327 327 327 326 326
325 324 325 324 324 324 323 321 323 323 321 322 323 321 323 323 321 321 322 322 323 322 321 321 323 322 322 322 322 321 322 322 322 322 322 322 322 322 322 320 316 316 318 320 323 325 326 328 329 331 332 333 333 333 333 333 333 333 333 333 334 333 333 332 332 332 331 331 331 331 331 331 331 330 331 330 328 328 329 329 328 328 327 327 327
324 325 323 325 324 323 323 323 325 324 322 321 321 321 321 321 321 320 320 320 320 322 321 321 321 322 322 321 320 320 320 320 321 321 322 321 321 321 321 321 320 315 315 316 318 321 323 325 326 328 329 330 331 331 331 331 332 332 332 332 332 332 332 332 331 331 331 331 330 330 330 329 329 330 330 331 331 331 330 329 328 328 327 327 327
325 324 325 324 324 323 323 324 324 323 322 322 322 322 322 322 325 322 320 321 322 323 322 322 322 321 321 321 319 320 320 319 320 320 320 320 320 319 319 320 319 320 320 315 315 317 320 322 324 325 326 326 327 328 328 330 331 331 331 331 331 332 332 331 331 331 331 331 330 328 329 329 329 329 330 329 329 329 329 329 328 329 329 328 327
325 325 324 324 324 323 322 322 323 321 321 322 323 323 322 322 322 322 322 320 320 321 321 321 321 321 321 321 320 321 319 319 320 320 320 320 318 318 318 318 319 319 319 319 314 314 315 318 321 323 323 323 324 325 327 328 329 329 330 330 331 331 330 329 329 329 329 329 327 327 327 327 326 327 327 328 328 328 329 329 328 329 329 330 329
324 325 324 323 323 322 323 324 323 322 322 323 322 322 322 322 322 322 322 322 320 322 320 320 319 319 320 319 319 319 319 320 319 320 320 318 318 318 317 317 318 318 314 318 318 315 312 313 317 318 318 320 321 323 325 327 328 327 327 327 328 328 328 328 328 327 327 326 326 326 326 326 326 325 326 326 326 327 327 327 328 328 328 328 329
325 324 324 323 323 323 324 324 324 322 322 322 322 323 323 322 322 320 321 322 321 321 321 318 319 319 319 319 319 319 319 319 318 319 318 318 318 317 317 317 316 311 316 315 316 315 312 311 312 314 313 315 318 320 322 324 325 325 326 326 326 326 326 326 326 326 326 325 325 325 325 324 325 326 325 326 326 326 326 327 327 326 326 327 327
326 324 324 324 324 324 325 325 324 323 323 324 324 324 323 323 323 322 321 320 321 321 321 320 318 318 318 319 319 319 318 318 318 314 316 316 317 316 315 315 315 314 313 313 313 313 314 312 310 310 310 311 315 317 320 321 321 322 324 325 325 325 325 325 325 324 324 324 324 325 324 322 324 325 325 325 325 326 326 326 326 326 327 327 327
326 325 325 325 324 325 325 325 324 324 323 324 324 323 323 322 323 323 319 319 321 321 321 319 317 317 318 319 319 319 320 319 316 315 315 315 314 313 313 313 313 312 311 311 311 312 312 312 312 313 313 308 311 314 315 318 317 319 322 323 324 324 324 323 323 323 322 322 323 324 322 323 324 324 324 324 325 325 325 325 324 322 323 326 326
327 326 326 326 326 326 325 325 324 324 323 322 322 323 323 321 320 321 321 319 317 319 318 318 317 317 318 320 319 319 320 317 315 314 314 314 313 312 312 312 312 311 310 310 310 310 310 310 309 311 311 310 308 309 311 313 312 316 319 321 322 322 321 320 319 319 319 319 319 319 319 319 318 318 319 322 322 324 325 323 322 323 325 325 323
327 327 326 324 326 327 326 325 325 325 324 324 325 324 325 323 323 319 320 319 321 319 318 319 318 318 319 318 318 319 316 313 313 315 314 312 311 312 310 312 313 312 310 309 309 309 309 310 311 311 311 311 310 308 308 309 309 313 317 319 319 320 319 319 318 317 317 318 319 319 318 317 317 318 318 317 318 319 320 320 321 323 323 321 321
327 328 328 328 326 326 326 326 325 324 325 326 325 320 322 321 319 319 317 321 321 318 319 320 317 315 313 313 316 318 313 311 313 315 312 311 310 311 311 311 313 311 309 309 310 309 310 311 311 310 310 310 310 310 309 309 309 310 315 316 317 319 318 318 318 319 318 318 317 315 315 316 317 318 317 317 318 318 319 320 322 322 322 321 321
329 327 328 328 327 327 327 327 326 325 325 325 325 324 324 322 319 322 319 316 319 317 318 320 318 311 313 312 310 310 315 315 310 314 314 314 311 313 310 313 313 309 307 310 311 311 311 310 310 310 309 309 309 309 309 307 306 307 311 311 312 316 318 319 319 319 317 314 313 314 315 315 314 314 315 316 315 316 316 318 318 319 320 320 320
329 328 328 328 328 327 329 329 329 327 326 325 323 322 321 319 319 319 321 320 317 317 316 317 317 312 312 312 309 308 308 310 308 314 309 311 312 313 311 313 312 311 311 311 310 310 310 310 309 309 309 309 308 308 309 308 307 306 306 305 307 313 317 318 318 313 312 313 313 313 312 312 313 313 314 316 316 316 316 317 317 318 318 318 318
329 329 327 329 329 328 328 328 328 328 327 326 325 324 323 324 322 320 319 319 318 316 314 314 315 316 314 309 310 308 307 309 309 313 312 314 312 311 311 311 311 310 310 310 311 310 310 310 309 309 309 308 308 308 308 308 308 306 306 304 308 310 311 310 310 311 312 312 312 311 312 312 313 313 315 315 316 316 316 316 316 315 316 316 316
328 328 328 328 329 329 329 329 328 327 325 326 327 326 324 323 323 322 320 319 319 317 316 312 313 314 314 315 314 312 310 309 310 308 313 311 311 310 311 310 309 309 309 309 309 308 308 307 309 308 308 308 307 308 308 307 306 306 304 306 306 305 305 306 309 310 311 311 310 311 311 312 312 313 313 313 313 313 313 314 314 314 314 314 315
327 328 328 328 329 329 329 329 329 329 326 325 325 325 325 325 323 321 320 317 317 316 316 314 311 312 311 311 311 309 311 310 307 306 304 309 311 310 310 310 308 308 308 308 307 306 306 306 306 306 307 307 307 307 306 305 304 303 302 303 304 304 304 304 305 307 310 310 310 310 311 312 312 312 311 311 311 311 312 312 312 313 313 313 314
326 327 328 328 327 329 329 329 328 327 324 324 324 325 324 321 320 321 320 319 318 318 316 314 316 311 309 310 309 309 311 311 310 307 304 301 305 309 309 308 307 306 308 305 304 305 305 305 304 305 306 307 305 304 304 303 302 300 298 300 302 303 304 304 305 305 306 307 309 310 310 311 311 311 311 311 311 311 311 311 312 312 312 312 312
326 327 327 328 326 328 329 328 326 325 324 324 322 322 322 319 317 317 317 317 318 317 316 314 315 312 308 308 309 308 307 306 306 308 304 301 302 303 303 306 305 305 304 303 304 304 303 302 302 303 304 304 303 302 301 300 299 297 296 299 301 303 304 305 304 304 304 304 306 307 309 311 310 310 311 310 311 311 311 311 311 312 312 311 311
321 324 325 326 326 326 326 326 324 324 322 323 320 319 319 319 319 317 316 315 315 318 317 315 316 315 314 312 310 306 305 304 305 305 304 305 300 300 301 300 298 300 300 301 302 300 301 301 302 304 304 302 301 299 298 297 295 295 295 296 298 301 302 302 303 303 303 303 304 305 306 309 310 310 311 310 310 310 311 311 311 310 311 311 311
320 320 323 324 324 322 324 324 322 317 319 319 319 319 318 317 315 316 316 316 315 314 313 313 313 313 313 314 313 311 310 307 305 304 304 301 299 299 300 299 297 295 299 300 298 299 300 301 302 303 301 300 298 297 295 294 292 293 294 294 296 297 298 300 302 302 302 303 303 303 304 304 305 306 307 309 309 310 310 310 310 310 310 310 310
317 318 318 320 320 321 319 320 318 318 318 318 317 317 316 316 315 314 313 313 313 313 312 310 310 309 309 309 309 308 307 307 306 305 303 301 299 297 296 295 295 296 299 297 298 298 301 302 303 300 299 297 295 295 293 293 292 292 292 293 294 295 297 299 300 300 301 301 302 302 302 302 303 303 304 306 307 309 309 309 309 309 309 310 309
313 315 316 317 318 318 317 317 317 317 316 316 316 315 314 313 313 312 311 311 311 311 309 309 309 308 307 307 307 306 304 304 304 303 301 300 297 293 294 294 292 292 294 295 297 297 299 301 300 298 296 295 294 293 292 292 292 292 292 291 292 293 294 295 298 299 299 300 300 300 301 301 302 302 303 304 305 306 307 307 307 307 308 308 308
314 315 316 316 317 317 317 316 316 315 315 315 315 314 313 311 310 309 309 309 309 309 308 308 307 307 306 304 303 302 301 301 300 299 297 295 294 293 292 293 293 291 292 295 294 290 294 300 296 296 294 293 292 292 291 291 291 291 290 290 291 291 292 294 296 297 298 298 299 299 299 300 301 301 301 303 303 303 305 306 306 306 306 306 307
316 317 313 314 314 314 313 312 312 313 312 312 311 311 310 309 308 307 307 307 308 307 306 305 303 302 302 301 299 298 298 298 299 298 297 297 295 293 292 288 288 290 289 290 290 292 290 295 293 294 292 291 291 290 290 290 290 290 289 290 290 290 291 293 295 296 296 297 297 298 298 298 299 300 300 300 301 302 303 303 304 304 304 304 304
316 313 311 313 312 310 307 306 308 309 310 310 310 309 308 307 306 305 304 305 305 304 302 301 299 299 297 297 296 295 295 295 296 296 296 296 295 294 293 291 288 285 287 286 287 289 289 290 292 291 291 290 290 290 289 289 289 289 289 289 289 289 290 291 293 294 295 295 296 297 297 297 298 299 299 299 299 299 300 300 300 300 300 300 300
311 310 309 310 310 308 305 305 305 306 307 308 308 307 306 305 304 301 299 299 299 298 298 297 295 295 294 295 294 292 290 291 292 293 294 295 294 295 295 292 290 288 287 286 285 286 290 290 290 291 291 289 288 289 289 289 288 288 289 289 288 288 289 290 291 293 294 294 295 296 296 297 297 298 298 298 298 298 299 299 299 299 299 300 301
309 308 309 308 307 304 305 304 304 304 304 305 305 304 303 301 297 296 296 295 293 293 293 293 292 291 290 289 290 288 287 289 289 289 290 290 291 292 292 292 291 288 288 285 285 287 288 288 288 287 289 288 288 288 288 288 288 288 288 288 288 288 288 289 289 291 291 292 293 294 295 296 297 297 297 297 297 298 298 298 298 299 299 300 301
305 306 306 305 305 304 304 302 302 302 301 301 301 300 299 294 293 293 294 294 293 291 290 290 289 289 289 288 288 288 288 288 287 286 286 288 288 289 289 290 290 290 287 287 284 287 287 286 287 288 287 287 287 287 287 288 288 287 287 287 287 287 287 287 287 289 290 291 292 293 294 296 296 297 297 296 297 297 298 298 298 298 298 299 299
306 306 305 304 302 301 300 301 300 299 298 297 298 296 294 293 291 291 291 291 290 289 287 288 288 288 288 287 287 287 287 287 287 287 287 287 287 286 287 288 287 287 287 286 285 284 287 286 286 287 287 286 286 286 286 287 287 287 287 287 286 286 286 286 287 288 289 290 291 292 293 294 295 295 295 296 296 296 296 296 297 297 297 297 296
304 303 302 302 301 300 300 299 300 298 296 294 294 293 292 291 291 290 290 290 288 287 286 286 287 288 287 286 286 286 287 287 287 287 287 287 287 287 287 287 286 285 285 284 283 283 285 286 285 285 286 286 285 286 285 285 286 286 286 286 286 285 286 286 286 287 288 289 289 290 292 293 293 293 294 294 294 294 294 295 295 295 294 294 295
302 302 301 300 300 299 299 299 298 297 295 293 292 293 291 290 289 290 289 288 287 286 287 286 286 287 287 286 285 286 286 286 286 286 286 286 286 286 286 286 285 285 285 283 283 282 282 284 284 285 285 285 283 286 284 284 284 285 285 285 286 286 285 286 286 286 287 288 289 290 291 292 292 292 292 291 292 293 294 294 293 292 293 293 293
300 301 300 299 298 299 298 297 297 295 295 293 292 293 291 290 288 288 288 287 287 286 286 286 286 286 286 285 285 285 286 285 285 285 285 285 286 285 285 285 284 285 285 285 283 282 281 281 283 283 283 284 284 284 285 285 285 285 284 284 284 285 286 286 286 286 287 288 289 290 290 290 290 290 290 291 291 291 291 291 291 291 291 292 292
298 297 298 298 297 297 296 294 295 294 293 292 291 291 290 289 288 287 287 287 287 287 286 286 285 286 285 285 285 285 285 284 284 284 285 285 285 285 284 284 284 283 284 283 283 282 281 280 282 282 283 282 283 284 285 285 284 283 284 284 285 285 285 286 286 285 286 288 288 288 289 289 289 289 289 290 290 290 290 290 290 290 290 290 290
296 295 294 295 296 296 295 294 294 293 292 291 290 289 288 288 287 286 286 286 286 286 286 286 285 285 285 285 285 285 285 284 284 284 284 284 284 284 283 283 283 283 283 283 282 282 281 280 281 283 283 283 284 284 284 282 282 283 284 283 284 284 284 286 286 285 286 287 286 287 287 287 288 288 288 289 289 289 289 289 289 289 289 289 289
294 294 294 294 295 295 294 293 293 292 291 290 289 288 287 287 286 286 286 286 285 285 285 285 285 285 285 284 284 284 284 284 284 284 284 283 284 283 283 283 283 283 282 282 282 281 281 281 280 280 282 282 282 283 283 283 281 281 282 283 284 284 284 283 284 284 285 284 284 284 285 286 286 286 287 287 288 288 288 288 288 288 287 287 288
294 294 293 294 293 294 292 292 291 290 289 288 287 287 286 286 286 285 285 285 285 285 285 285 285 284 284 284 284 284 284 284 284 284 283 283 283 283 283 282 283 282 282 281 281 281 280 280 281 281 281 282 282 281 283 283 283 282 281 280 280 283 283 282 281 283 284 284 285 286 285 284 284 284 285 286 287 286 287 287 287 287 286 287 288
294 294 293 293 291 292 291 290 289 288 287 287 286 286 286 286 285 285 285 284 284 284 284 284 284 284 283 283 284 284 284 284 284 284 284 283 283 283 283 283 283 282 281 281 281 280 280 280 280 280 280 280 281 282 283 282 281 281 282 280 279 279 280 281 282 281 282 283 282 282 283 283 283 283 284 285 285 286 286 285 285 285 285 287 289
293 292 292 291 290 289 288 288 287 287 287 286 286 286 286 285 286 285 284 284 283 283 283 283 283 283 283 283 283 283 283 283 283 283 283 283 283 282 283 283 282 282 281 281 280 280 280 280 279 280 280 279 280 280 279 279 279 279 281 281 279 280 280 279 281 282 282 281 280 280 280 281 281 281 282 282 282 283 283 284 285 285 286 289 290
290 290 290 289 289 288 287 286 286 286 286 286 285 287 287 285 285 285 284 284 283 283 282 282 282 282 282 282 283 282 282 282 283 283 283 283 283 283 283 283 282 282 281 280 280 280 280 279 279 279 278 278 279 279 279 280 281 281 280 279 277 278 279 278 279 281 282 280 278 277 279 281 281 280 281 280 282 283 282 283 283 285 287 289 289
289 288 289 288 287 287 286 286 285 286 286 286 287 288 288 287 285 284 284 283 283 282 282 282 281 281 281 281 282 281 281 282 282 283 283 283 283 284 284 284 283 282 280 280 280 280 279 279 279 279 278 278 279 280 279 280 280 279 278 278 278 278 276 275 274 278 282 279 277 277 277 281 281 278 279 280 281 282 282 282 286 287 287 288 289
287 287 287 286 285 285 285 285 285 285 286 287 289 289 288 287 285 284 284 283 283 282 282 281 281 281 281 280 281 280 281 281 281 282 282 282 283 283 284 284 283 283 283 282 280 280 280 278 278 278 278 278 278 279 279 279 278 278 278 278 278 277 276 275 275 274 278 280 277 276 276 279 280 279 278 280 281 282 282 284 286 287 287 288 288
286 286 285 284 284 284 285 285 285 286 287 289 290 289 288 287 286 284 283 283 282 282 281 281 281 281 280 280 280 280 280 281 281 281 281 281 282 283 284 283 282 282 282 283 283 282 281 279 278 278 278 279 278 279 280 279 279 277 277 277 277 277 277 275 275 275 277 279 277 276 275 277 279 278 278 279 281 281 282 284 285 286 287 287 287
285 285 284 283 283 284 284 285 285 287 288 289 289 288 288 287 286 284 282 282 281 281 281 281 281 280 280 280 279 279 279 280 280 281 281 281 282 282 283 282 281 282 282 282 282 281 281 280 279 278 280 280 278 279 279 280 278 277 277 276 277 276 275 274 276 276 278 280 276 275 274 276 278 278 277 279 281 281 281 282 284 286 286 286 286
284 283 283 282 282 283 284 285 286 286 287 289 288 288 287 287 285 283 282 281 281 281 281 281 280 280 280 280 279 279 279 280 280 281 281 282 283 282 281 281 281 281 281 280 279 280 280 281 280 280 280 280 279 279 279 280 279 279 278 277 277 276 276 277 276 277 277 279 278 276 272 275 278 276 276 278 279 279 279 281 283 285 285 285 286
283 282 282 282 281 282 283 284 285 285 287 288 288 287 287 286 285 281 281 281 280 280 280 280 280 280 280 280 279 279 279 280 281 283 283 283 282 281 280 280 279 278 278 279 280 281 281 281 280 280 279 279 280 280 280 280 279 278 278 278 277 276 275 273 272 274 274 277 278 276 274 274 277 276 276 278 278 277 278 279 282 283 284 284 285
281 281 281 280 281 282 282 284 284 285 286 287 287 287 287 286 283 281 281 280 280 279 279 279 279 280 280 280 279 279 279 280 281 283 284 283 281 279 278 276 276 275 276 278 280 280 280 279 279 279 279 280 280 280 280 279 278 278 276 274 274 274 272 271 271 272 272 275 276 277 275 273 276 276 275 276 276 276 276 277 278 281 283 284 284
281 280 280 279 280 281 282 283 284 284 284 285 287 286 286 284 282 281 280 280 279 279 279 279 279 279 280 280 279 279 279 280 282 283 283 281 279 277 276 274 273 274 276 278 278 277 277 277 277 277 278 278 278 277 277 277 278 277 274 272 274 274 272 271 270 271 272 274 276 278 274 273 275 275 273 274 275 276 276 277 277 278 280 281 283
280 279 279 279 279 279 280 281 281 283 283 284 286 286 285 284 282 281 280 279 279 278 278 278 279 279 279 279 280 280 280 281 283 283 282 280 278 276 275 274 273 274 276 276 275 273 273 273 273 274 274 274 274 273 274 276 276 276 275 275 275 273 271 271 271 271 270 272 275 277 273 273 272 273 272 271 270 273 276 276 276 276 277 278 278
Wind_Speed
4 4 4 3 3 3 2 2 1 1 2 2 1 1 1 1 1 1 0 1 1 2 1 2 1 1 2 2 2 2 2 2 2 2 2 2 2 4 6 7 8 9 11 12 13 14 15 17 17 18 17 18 17 17 17 17 17 17 17 16 16 17 15 13 15 16 17 16 20 20 22 20 17 18 19 19 20 19 18 18 19 20 21 21 20
3 3 4 4 3 3 2 3 3 2 2 3 2 1 1 1 1 1 2 2 2 1 1 2 2 2 2 2 3 2 2 2 2 3 3 3 3 4 7 6 7 9 10 11 12 13 14 16 17 18 18 18 18 18 18 18 18 17 19 19 18 17 16 13 11 14 17 16 16 19 21 21 18 19 21 25 23 23 23 21 20 21 22 22 21
3 3 3 3 3 3 3 2 3 3 3 3 2 2 1 2 1 1 2 2 2 1 2 3 3 2 2 3 3 1 2 1 2 2 3 3 3 4 5 7 7 8 9 11 12 12 13 14 15 16 17 18 19 19 19 19 19 19 19 19 20 19 18 18 16 16 17 15 17 17 18 19 20 20 21 23 23 22 23 24 21 22 23 23 23
4 4 4 3 3 3 3 3 5 4 3 3 3 3 3 2 2 2 2 2 3 3 2 3 3 3 2 3 2 2 2 1 2 2 3 3 3 3 3 5 6 6 8 11 12 12 13 13 14 14 15 17 18 19 20 20 20 20 20 20 19 19 18 18 18 18 19 19 20 20 19 17 17 17 18 20 21 22 22 23 25 25 25 25 26
4 4 4 3 3 3 3 4 4 3 3 4 4 3 2 2 3 2 3 2 3 4 2 3 3 3 2 3 2 3 2 2 2 3 3 3 3 3 3 3 5 6 7 8 10 10 11 12 13 13 14 15 17 18 19 19 19 19 19 19 19 19 20 20 19 19 20 20 20 21 21 20 21 21 19 19 17 17 20 21 24 25 25 28 27
5 4 4 3 3 3 4 4 4 3 3 4 4 3 3 3 4 2 3 3 4 4 2 3 2 2 3 2 2 3 2 3 3 3 3 4 3 3 3 3 3 4 5 6 6 8 9 10 12 13 14 15 16 17 17 17 17 18 18 19 20 21 21 22 21 21 21 20 20 21 20 21 21 22 22 21 21 20 21 21 19 21 22 26 27
6 5 5 4 4 4 4 5 3 4 3 3 3 3 3 4 1 3 3 3 3 3 3 3 3 4 3 1 3 3 2 3 3 3 3 3 3 3 3 3 3 3 3 4 4 5 7 10 12 13 14 14 15 15 16 16 16 17 17 18 19 20 20 21 20 20 20 20 21 21 21 21 21 21 21 22 22 22 22 23 22 20 21 23 25
6 6 5 5 5 5 5 4 4 3 3 3 3 3 3 3 3 3 3 4 3 4 1 2 2 4 3 2 3 3 4 3 4 4 2 3 3 3 2 3 3 3 3 3 4 5 6 8 10 11 11 13 14 14 15 15 16 17 17 18 19 20 20 20 20 20 20 20 20 20 20 21 21 21 22 22 23 23 23 23 24 24 23 22 21
7 7 6 5 5 5 5 5 4 4 4 4 4 4 3 3 3 3 3 4 3 5 3 1 3 3 4 3 3 3 4 4 4 3 3 4 4 3 3 3 3 4 2 3 3 3 5 6 8 9 10 11 13 14 15 16 16 17 17 18 18 19 20 20 20 19 20 20 20 20 20 21 21 21 21 22 22 22 23 23 24 25 25 24 23
8 7 6 6 5 5 5 5 4 4 4 5 5 3 4 4 4 4 4 4 4 4 5 2 2 3 4 4 4 3 4 4 4 2 2 4 3 3 4 4 3 3 3 2 3 2 3 4 5 6 7 8 12 13 14 15 16 17 17 17 17 18 19 19 19 19 19 20 20 21 21 21 21 22 22 22 22 22 23 23 24 25 24 24 24
7 7 6 6 6 5 5 6 6 5 4 4 3 3 4 3 5 4 2 3 4 4 3 2 3 3 4 5 4 4 5 3 2 2 1 2 3 3 2 3 3 3 3 2 2 2 3 3 4 4 5 8 10 12 13 15 15 16 17 17 17 18 18 19 20 20 20 21 21 21 22 22 22 23 23 22 22 22 22 23 24 24 25 26 26
8 8 7 6 6 6 7 7 5 5 5 5 5 5 6 6 6 6 4 3 3 3 2 2 2 3 6 5 3 4 4 1 1 1 1 1 2 2 2 3 2 2 2 3 2 3 3 3 3 4 4 6 7 9 11 12 13 15 16 17 18 18 18 19 19 20 20 21 21 22 22 23 24 24 24 24 24 24 23 24 25 25 24 24 26
8 7 7 7 6 7 7 6 6 6 6 7 7 6 6 6 4 3 5 4 3 2 2 2 1 6 1 3 5 4 2 2 2 1 1 1 0 1 2 2 2 2 3 3 3 3 3 3 4 4 5 5 6 7 8 9 10 14 16 17 18 19 20 20 21 22 22 22 23 23 24 24 25 24 24 25 25 25 26 26 27 26 26 27 28
8 9 8 7 7 6 7 6 6 7 7 7 6 6 5 5 3 2 2 4 3 3 3 3 1 2 4 6 3 4 3 3 5 3 1 1 2 2 2 2 3 3 3 3 3 3 3 4 4 5 5 5 5 6 6 7 7 13 15 17 18 20 21 21 22 22 22 23 23 24 25 25 24 24 25 25 25 25 25 27 26 26 27 27 28
9 9 8 8 8 8 7 7 7 7 6 7 7 6 6 5 5 4 2 2 3 1 3 4 3 2 1 3 2 4 2 2 1 4 4 3 1 4 2 3 5 3 2 3 4 4 4 4 5 5 5 5 5 5 5 7 9 13 15 16 17 20 21 21 22 22 23 24 25 25 24 24 24 25 25 25 25 26 26 27 27 28 27 27 28
10 9 8 8 9 9 8 7 7 7 7 7 6 7 5 4 5 6 5 5 3 2 3 4 3 3 2 1 2 1 1 0 2 3 1 2 4 2 3 5 4 4 4 6 6 5 4 4 5 5 5 5 5 5 6 6 10 9 12 14 18 20 21 21 21 23 24 24 23 23 24 25 25 25 25 26 27 27 28 28 28 28 28 29 30
9 9 9 9 9 9 8 8 7 7 7 7 7 7 7 6 7 6 7 6 4 3 0 3 5 2 0 1 0 1 1 2 6 2 1 1 1 2 3 4 4 4 5 5 5 4 5 6 5 5 5 6 5 5 5 6 7 8 10 12 16 20 20 21 23 23 23 23 23 24 24 24 24 25 25 26 26 26 26 27 27 28 27 28 30
9 9 9 9 9 9 9 7 8 6 6 7 7 6 5 7 8 7 7 7 5 3 3 1 1 1 1 1 2 1 2 1 3 4 2 1 1 1 2 2 2 6 4 4 5 5 4 5 5 5 5 5 5 5 5 6 7 8 9 11 19 20 21 22 22 22 23 23 24 24 24 24 25 25 26 26 27 27 27 27 27 28 28 28 29
9 9 9 9 9 8 8 8 8 7 7 6 6 7 6 7 5 6 6 5 4 4 5 3 2 1 1 1 2 3 3 2 2 1 5 4 3 6 3 2 3 5 4 3 3 4 3 2 5 5 5 4 4 5 5 6 7 8 13 17 19 20 21 22 21 22 23 23 24 24 24 25 25 26 26 27 28 28 28 28 28 28 29 29 29
9 9 9 9 9 8 8 7 8 7 6 6 7 6 4 4 5 5 5 6 6 6 5 5 5 3 1 3 4 3 2 1 3 3 1 2 8 5 1 6 9 7 4 6 6 5 7 5 5 5 4 4 5 6 6 7 7 8 9 19 22 22 23 22 22 22 23 24 24 24 25 26 26 27 27 28 29 29 29 29 29 29 30 30 30
8 9 9 9 8 7 8 7 7 6 7 6 5 5 6 6 6 4 5 5 5 4 5 4 4 5 4 2 3 3 3 3 3 3 2 1 6 5 7 7 4 0 5 7 6 4 4 3 3 3 4 6 7 7 7 8 8 9 11 21 23 23 23 23 23 23 23 24 24 25 26 27 28 28 29 29 29 30 29 30 30 30 30 31 31
7 7 7 8 8 8 7 8 6 6 6 7 7 6 6 6 6 6 6 6 5 5 5 5 4 5 5 6 3 3 3 2 2 2 2 3 5 5 5 6 6 4 5 4 7 8 6 4 4 3 6 6 6 7 7 7 8 9 13 20 22 23 24 24 24 23 24 24 25 25 26 26 27 28 29 30 30 30 29 30 31 31 32 31 32
7 7 7 7 7 7 7 7 6 6 5 7 7 6 6 6 6 7 7 8 6 6 6 5 5 5 5 4 4 4 4 3 3 2 2 3 3 6 5 4 5 7 3 6 6 6 4 4 4 6 7 6 7 7 8 9 13 14 18 19 22 22 23 24 24 24 25 25 26 26 27 28 28 29 30 30 31 31 31 31 32 32 32 33 32
6 6 6 6 6 6 6 7 6 7 7 6 6 5 6 7 7 6 6 5 5 7 6 6 6 5 5 4 5 4 4 3 3 3 3 3 4 6 4 2 4 4 4 5 5 4 3 3 3 6 5 5 7 7 9 11 11 17 15 19 20 22 22 23 23 23 24 24 25 25 26 27 28 29 30 30 31 31 32 33 33 33 34 34 35
6 7 6 7 7 6 6 7 7 6 6 6 7 8 7 5 7 8 7 7 6 7 6 6 7 6 6 5 5 5 5 4 4 4 3 2 3 2 2 2 3 3 2 2 2 4 1 2 5 4 5 6 7 8 8 10 9 11 15 13 17 17 19 21 22 22 23 23 24 25 25 26 27 27 28 29 29 30 31 32 32 33 34 35 35
9 9 8 8 7 8 8 7 7 8 9 8 7 8 7 7 7 6 7 6 6 7 7 8 7 8 6 6 5 5 5 4 4 3 4 4 3 3 2 2 3 3 2 2 1 1 3 3 4 4 5 6 6 6 9 8 8 11 14 12 12 16 19 21 22 23 24 24 24 25 25 27 27 27 28 29 29 30 30 31 32 33 33 34 35
9 8 6 8 7 7 8 9 7 8 8 8 7 6 7 5 5 7 6 5 7 7 6 8 8 7 6 6 6 5 5 4 4 4 4 3 2 3 1 3 2 1 1 1 2 2 1 1 2 4 5 6 8 10 10 9 10 14 14 11 10 14 17 20 21 23 23 24 24 24 25 25 26 27 28 29 29 30 31 31 31 32 32 32 33
6 7 7 8 8 8 7 7 7 7 8 9 9 7 6 7 6 6 7 4 7 8 7 7 8 8 7 7 7 5 5 5 4 4 4 3 3 3 2 2 2 3 0 1 3 2 1 1 1 3 5 7 8 8 9 10 8 13 12 9 10 10 15 19 21 22 23 23 23 23 24 25 27 27 28 29 29 29 30 31 31 32 32 33 33
7 7 9 7 8 8 9 8 7 7 7 8 8 7 7 7 7 8 8 5 8 8 6 7 6 7 7 7 7 6 5 5 5 4 4 4 3 3 2 2 3 1 3 2 0 2 1 2 1 0 5 8 7 7 8 7 8 10 9 9 9 9 13 19 20 21 22 23 23 24 25 26 27 28 29 29 30 30 30 31 31 31 33 33 34
8 8 9 9 8 9 9 7 7 7 8 8 8 8 8 7 8 8 7 9 8 5 5 7 7 7 7 6 6 6 5 5 5 4 4 4 4 3 3 3 2 2 2 1 3 3 3 1 1 4 3 6 6 7 7 8 8 11 9 9 8 9 16 18 18 21 22 23 24 25 26 27 28 30 30 30 30 30 31 31 32 32 33 35 36
8 8 9 9 9 8 8 8 8 8 8 8 8 7 8 10 9 8 6 8 7 7 6 7 6 7 8 8 4 5 5 5 5 5 4 5 5 5 4 3 3 3 3 2 1 2 2 2 2 3 7 9 8 7 6 6 7 10 9 9 9 12 15 12 16 20 23 24 25 26 27 28 29 30 30 30 30 30 30 32 32 33 34 36 36
9 10 10 11 10 10 7 9 9 9 9 7 7 8 10 10 9 8 8 8 8 7 7 5 5 6 8 7 5 5 5 5 4 4 4 4 4 5 4 4 4 4 3 2 3 7 1 5 6 5 8 10 10 9 8 7 6 8 9 9 10 12 9 10 14 20 23 24 25 26 26 28 29 29 30 29 30 31 32 33 35 35 36 36 36
10 10 10 10 11 11 10 9 11 10 10 9 8 10 10 9 8 8 8 9 9 6 8 8 5 7 7 7 6 5 4 6 5 4 4 4 4 4 3 3 4 4 3 1 3 7 4 2 3 6 7 9 9 8 11 10 10 9 9 9 9 9 9 9 11 17 22 24 24 25 26 27 28 29 28 28 29 31 33 34 34 35 34 35 35
10 11 11 10 10 11 11 10 9 9 10 10 10 10 10 9 8 7 8 9 8 8 8 7 6 6 6 8 6 6 4 6 5 5 4 4 4 5 4 3 4 4 3 2 2 3 7 2 5 3 5 7 10 7 10 14 14 12 12 10 7 7 7 9 10 12 21 24 25 25 26 26 27 27 27 27 30 32 33 33 33 33 33 34 35
7 10 11 11 10 10 10 10 10 10 11 10 9 10 9 9 9 8 8 10 10 10 9 8 7 7 7 7 7 6 5 7 6 5 4 5 4 5 4 3 4 3 3 2 1 3 6 8 4 6 6 8 8 11 11 10 11 11 13 12 10 7 5 8 9 10 18 24 28 28 26 24 25 27 27 27 29 30 30 31 32 32 33 33 34
9 7 8 11 11 11 10 10 10 10 10 10 9 9 10 10 9 8 8 8 8 9 10 9 8 7 7 8 6 6 6 7 5 5 4 4 4 4 5 5 5 4 3 2 2 3 5 8 5 7 7 8 9 9 9 9 11 12 11 12 10 9 10 9 10 10 13 22 25 26 27 24 23 26 28 29 29 30 30 30 31 31 32 33 34
8 10 7 7 10 10 11 11 11 11 11 10 10 9 9 9 9 9 8 8 8 8 8 7 7 7 7 7 7 6 5 7 5 5 4 5 4 4 5 5 4 3 3 3 2 3 5 8 9 6 7 7 7 8 8 12 13 13 11 11 11 12 10 9 7 10 21 26 21 20 20 21 20 24 26 25 26 28 29 29 30 31 32 33 33
8 8 11 9 10 10 9 10 10 10 9 10 10 11 10 9 7 7 7 7 7 7 7 7 6 6 7 7 6 6 5 6 6 5 5 6 5 6 6 5 4 3 3 3 3 4 5 7 8 9 6 8 9 5 6 10 13 15 17 15 12 7 8 9 8 8 10 13 14 12 13 16 17 26 29 23 24 27 28 29 29 30 31 31 33
11 9 7 9 7 9 9 9 9 10 10 9 10 10 10 9 8 8 7 7 7 6 6 7 6 6 6 6 6 5 6 5 6 6 6 6 5 7 6 5 4 3 3 3 3 4 5 6 7 7 9 8 7 10 9 9 9 8 13 18 19 16 13 10 14 11 9 11 16 20 17 18 17 15 22 23 21 24 26 28 29 29 29 31 32
8 10 11 9 7 7 8 8 8 9 10 9 9 10 10 8 8 7 8 8 8 8 7 6 6 6 6 6 6 5 5 5 6 6 5 5 5 5 5 4 4 3 3 3 4 4 5 6 7 9 8 9 9 7 7 9 11 11 10 12 15 18 19 16 13 13 13 11 14 15 14 16 12 14 18 20 20 23 26 24 25 27 28 30 34
6 8 8 10 10 9 8 8 9 8 9 9 9 9 9 8 7 8 8 8 9 9 8 7 6 6 6 5 5 6 6 7 8 7 6 6 4 5 4 4 4 3 3 3 3 4 5 6 7 7 8 9 9 11 12 11 12 12 14 13 14 15 16 17 15 10 11 14 14 17 16 15 17 15 13 13 14 19 19 23 20 25 31 34 35
7 8 8 8 9 11 10 8 8 7 7 7 9 12 8 9 8 7 7 8 8 8 9 8 7 6 6 6 6 9 8 8 8 8 8 8 7 5 4 3 3 3 3 3 3 4 5 6 7 8 9 8 9 11 12 12 11 12 13 13 14 15 16 16 15 7 6 9 15 17 16 12 14 16 16 14 14 16 18 18 18 25 31 35 35
9 9 9 9 8 8 8 9 9 7 7 7 14 13 13 12 9 8 9 8 8 8 7 8 8 7 6 6 6 6 6 6 6 8 8 7 6 5 5 4 3 2 2 3 3 4 4 5 6 7 8 10 10 10 11 11 11 12 11 12 13 14 14 15 16 15 6 15 16 19 18 14 13 16 17 14 15 18 17 18 32 33 35 35 35
7 8 9 9 9 8 7 8 9 8 7 11 14 14 14 14 10 8 8 8 7 7 7 7 7 7 7 6 5 4 4 4 4 3 3 2 2 2 3 3 3 3 3 2 3 4 4 5 6 6 8 9 10 9 10 11 12 13 12 12 12 12 14 14 13 13 12 15 18 17 19 14 14 16 17 15 15 15 18 26 32 35 35 34 34
9 9 9 9 9 9 9 11 10 9 9 14 15 15 15 15 14 10 7 7 8 7 7 7 8 7 7 6 6 4 4 5 3 2 2 1 2 4 2 3 3 3 2 3 4 4 4 5 6 7 7 8 10 9 9 12 13 13 13 12 13 13 12 14 13 14 15 14 14 15 17 16 15 18 18 16 15 17 18 22 33 34 33 34 35
9 10 9 11 10 9 9 10 10 10 10 13 16 16 15 15 15 10 7 8 7 7 8 7 7 7 6 6 6 5 5 4 3 3 2 3 3 2 2 1 1 1 2 3 3 5 5 4 5 6 7 7 9 10 11 11 12 12 12 13 14 14 14 16 17 15 13 10 10 13 16 16 14 18 18 17 16 17 16 24 32 30 32 35 35
10 10 10 10 9 8 10 9 10 10 8 15 15 16 16 16 16 11 8 7 7 7 6 6 6 6 6 5 6 6 6 4 4 4 3 3 3 2 1 0 1 1 2 3 4 4 4 4 5 7 7 7 8 10 10 10 11 11 10 12 13 14 15 17 15 11 9 5 11 11 14 15 13 17 18 17 17 17 15 20 26 29 32 34 34
5 7 6 7 10 10 9 10 11 9 10 15 15 16 17 16 16 8 7 8 7 7 6 6 6 5 6 6 6 6 5 4 5 5 3 2 2 3 2 1 2 3 3 4 5 4 4 5 5 6 7 8 10 10 10 10 10 10 11 10 10 10 12 14 15 14 13 10 11 11 11 15 13 14 19 16 14 16 16 14 21 28 32 33 33
9 9 9 8 8 10 11 10 12 11 10 14 16 17 17 18 12 6 6 6 6 7 6 6 6 6 6 6 5 5 5 3 5 3 2 4 3 4 3 3 2 2 3 3 1 4 7 9 9 10 10 11 11 12 13 15 12 11 9 10 9 9 10 13 14 14 15 13 11 11 13 15 13 14 18 18 14 13 13 14 14 22 30 31 31
10 9 8 8 7 8 11 11 11 12 10 13 17 17 18 17 11 8 7 7 6 6 7 6 5 5 6 8 6 5 4 4 5 3 2 6 4 4 4 3 1 2 2 1 2 4 7 8 8 8 8 9 11 12 12 13 13 10 7 8 10 9 11 10 12 13 16 13 8 10 14 12 15 12 15 18 18 4 8 13 17 18 24 23 29
7 6 7 8 7 6 6 9 11 12 10 12 16 17 17 17 11 6 6 6 7 6 6 6 6 5 6 6 7 5 5 5 4 3 3 5 4 4 3 1 0 1 2 2 3 3 4 5 4 5 6 8 8 8 8 13 13 11 7 8 8 9 10 11 11 12 13 11 9 14 14 13 15 14 12 15 16 12 3 12 16 16 15 15 17
Wind_Direction
174 179 164 182 185 185 184 191 205 203 202 215 197 147 188 224 248 284 303 302 305 310 329 307 303 281 281 283 283 290 290 287 291 297 284 289 295 286 287 283 289 295 300 302 306 307 310 313 315 315 316 317 318 318 319 322 323 320 318 318 317 315 316 308 304 293 289 288 291 292 289 282 288 296 284 275 273 263 256 261 264 264 263 262 262
167 175 177 197 200 196 203 209 209 215 214 229 220 217 218 196 239 250 283 281 289 297 304 290 274 259 253 268 260 266 269 278 302 313 315 313 301 301 294 295 300 307 307 308 308 309 311 315 316 316 317 318 321 322 324 323 323 325 321 323 324 324 317 315 307 294 292 287 276 273 279 279 283 277 281 279 272 267 266 265 265 261 260 261 262
178 174 185 187 197 204 217 220 233 221 217 232 215 218 223 235 243 275 282 286 280 282 285 284 277 264 233 245 255 257 261 255 269 287 289 295 292 293 307 310 306 302 303 304 306 310 314 315 316 317 320 323 326 329 330 329 328 327 327 327 327 327 331 336 329 323 318 302 291 296 298 292 288 288 288 282 280 286 285 277 265 260 263 265 265
184 182 188 189 196 205 217 220 231 230 221 227 221 216 222 235 245 248 250 256 274 267 239 255 266 267 276 266 281 279 283 285 289 270 272 271 277 288 300 304 304 301 304 307 312 318 319 319 319 323 325 329 330 331 330 330 329 329 330 330 329 330 333 338 339 338 337 338 335 332 330 321 307 299 294 290 287 286 284 280 272 271 270 266 264
191 188 188 196 194 201 214 227 228 210 214 221 220 217 215 221 245 220 241 245 265 262 236 241 257 264 258 271 290 273 268 275 267 271 274 283 285 300 295 311 312 311 301 306 317 322 323 325 327 329 332 333 333 333 332 331 332 332 332 331 330 329 332 337 340 337 336 335 337 339 337 333 329 325 317 305 295 286 282 279 279 280 276 268 267
179 189 192 192 197 206 214 229 222 208 210 212 221 215 229 209 212 186 232 226 243 256 249 248 241 262 262 276 249 263 268 259 260 273 284 280 299 303 307 309 311 305 312 316 323 322 324 327 329 335 339 339 337 336 336 336 336 337 336 333 332 337 338 338 338 336 335 336 339 336 334 333 329 326 321 319 316 310 302 295 294 287 280 278 272
187 180 194 190 196 207 216 230 202 193 196 202 217 218 217 236 244 225 212 221 239 261 251 264 287 284 281 283 281 283 273 273 282 277 277 298 306 296 304 303 299 305 322 328 325 325 330 334 339 342 342 340 338 337 338 338 339 340 340 338 337 336 336 335 333 333 333 336 334 336 334 329 325 322 320 319 318 317 314 311 307 296 289 284 275
183 184 184 192 196 203 217 223 199 193 209 193 203 220 222 251 244 252 256 242 213 252 182 255 271 281 284 286 289 292 284 281 283 286 304 315 297 308 315 304 308 326 335 330 330 333 337 338 340 342 340 338 337 338 338 339 341 342 340 337 336 337 338 337 338 339 338 334 337 335 330 327 327 324 323 322 319 317 315 314 312 309 301 295 284
192 186 191 189 197 204 217 211 193 195 191 187 198 210 214 222 232 212 233 262 248 275 275 247 274 274 283 285 282 288 283 288 285 294 332 306 316 327 323 331 329 333 344 343 331 324 336 335 338 336 333 334 336 338 340 342 344 343 341 340 341 341 341 342 342 340 338 338 335 333 332 329 328 329 328 325 320 317 317 313 310 310 309 308 303
192 188 195 196 197 204 215 201 186 198 201 184 198 188 203 203 235 211 201 206 244 253 279 269 256 280 287 282 282 274 278 271 271 312 309 309 321 336 341 330 331 348 350 341 327 329 327 335 328 323 323 332 335 337 340 343 345 343 343 345 344 344 344 344 342 342 340 338 336 335 335 336 334 331 328 327 325 322 319 316 315 314 314 312 311
188 183 193 195 200 207 212 200 183 190 196 215 188 179 189 203 223 232 180 222 242 249 267 314 288 279 285 291 287 283 272 267 294 283 279 293 319 326 323 337 337 356 345 339 339 335 339 347 345 340 341 334 334 338 340 343 343 341 343 345 347 348 348 347 346 345 344 343 341 338 339 339 337 335 333 329 326 322 320 319 317 316 316 316 314
189 189 193 193 198 199 205 200 187 186 190 192 186 186 196 196 221 226 232 254 237 254 236 239 278 294 293 286 291 281 278 353 327 287 294 343 343 327 352 342 350 344 341 343 347 346 353 348 340 335 330 333 330 337 339 341 340 339 344 347 349 349 350 350 350 350 349 347 345 343 342 340 338 335 332 329 327 325 321 317 316 315 314 313 311
199 190 194 198 200 204 204 197 187 188 184 204 202 203 199 188 201 193 207 225 246 199 207 184 336 310 283 301 308 281 327 1 35 347 34 24 55 20 20 1 359 357 356 347 347 358 352 344 342 338 338 336 340 342 338 336 337 343 345 349 350 350 353 352 352 351 350 348 346 344 341 338 336 334 333 331 328 325 322 320 319 318 316 312 311
197 198 197 191 201 204 201 200 191 203 202 201 200 203 198 196 151 191 207 227 257 180 167 148 284 253 314 327 324 334 17 33 52 27 112 93 40 62 39 19 357 8 353 342 359 353 345 346 344 339 336 338 336 340 341 345 348 345 346 351 351 353 353 351 350 350 348 345 342 339 337 335 334 333 331 329 326 323 321 319 319 317 316 315 315
199 197 200 201 203 198 201 200 196 197 206 217 211 210 206 193 176 209 201 219 260 237 164 193 254 146 126 285 341 12 347 8 318 1 12 25 48 57 25 15 5 20 353 338 350 344 342 347 340 336 334 339 339 340 342 344 349 344 352 353 350 351 350 349 347 345 343 340 337 336 335 334 332 329 326 325 324 323 321 319 318 317 316 316 314
202 197 201 202 201 202 196 194 200 197 201 218 213 223 198 199 203 211 210 240 204 257 199 204 188 135 245 240 313 17 17 89 323 286 260 355 40 49 22 9 358 11 355 352 341 335 339 346 339 336 339 340 340 340 343 350 346 348 353 352 353 351 351 348 346 343 339 336 336 335 333 332 331 330 328 326 324 323 321 319 318 318 318 316 314
205 200 199 203 202 202 200 202 201 199 191 207 212 214 213 196 194 201 192 202 224 200 151 199 205 229 155 125 346 10 212 286 335 330 27 62 77 72 58 6 8 1 348 333 332 332 337 341 341 344 345 344 343 342 342 348 355 357 355 354 351 356 351 346 341 339 338 337 337 335 334 333 331 330 329 327 325 324 322 321 319 318 316 314 313
203 204 203 200 201 204 202 190 200 206 203 207 210 205 208 216 213 205 203 201 195 161 190 187 199 277 306 63 166 233 322 294 25 306 342 140 281 133 79 50 355 338 338 323 332 332 341 329 338 338 344 344 341 341 349 358 2 6 7 357 357 353 347 344 342 341 340 340 339 337 336 334 333 332 330 328 326 325 323 321 319 317 316 314 312
203 202 203 205 209 202 197 202 195 190 195 199 211 213 215 215 196 194 197 172 169 169 200 182 133 78 65 122 85 83 123 143 225 359 323 320 302 335 352 107 337 328 328 338 331 316 338 351 336 336 340 349 355 0 7 15 16 17 7 358 353 349 347 347 346 344 342 342 340 339 337 335 334 332 330 329 327 326 324 323 322 320 318 316 314
199 202 204 204 207 201 198 201 207 202 178 191 200 205 200 173 184 187 158 163 171 192 188 165 163 143 94 105 87 99 125 121 115 162 172 304 312 340 181 351 346 337 346 346 343 340 334 349 349 346 344 16 22 21 23 23 22 10 3 357 354 352 351 350 348 345 344 342 341 339 338 336 334 333 331 330 329 327 326 325 322 321 319 318 317
201 198 202 203 204 206 199 201 198 181 173 180 188 168 179 164 142 139 166 158 169 173 136 165 146 148 122 78 125 119 96 79 129 133 140 268 282 279 310 334 334 258 352 331 322 317 321 335 340 345 1 29 27 30 25 19 14 4 0 358 355 352 351 349 347 345 344 342 340 339 337 335 334 333 332 331 329 328 326 324 323 321 320 319 317
199 205 201 202 198 199 195 189 192 183 171 163 160 165 166 159 155 153 157 151 155 153 144 151 146 145 159 152 150 127 116 122 122 128 95 206 239 268 297 308 317 313 336 318 319 324 335 347 350 29 41 42 36 32 25 18 8 4 359 357 354 351 349 348 346 344 342 340 338 337 335 334 333 332 331 330 329 327 326 325 323 321 320 318 317
197 200 204 199 200 191 189 183 169 166 155 151 164 159 157 141 135 141 152 151 146 125 116 127 137 147 157 168 152 160 168 172 167 146 157 235 277 273 269 260 255 286 289 310 313 311 323 344 354 23 31 34 27 19 16 10 8 3 357 355 351 350 348 345 344 342 340 338 336 335 334 333 332 332 331 330 329 327 326 325 323 322 320 319 318
183 192 204 198 189 185 177 155 154 151 154 150 141 141 139 135 130 136 134 126 127 125 128 131 133 131 127 117 118 129 104 107 125 139 182 226 220 259 276 274 272 235 271 290 292 287 320 336 42 52 45 38 30 22 13 7 3 358 352 349 347 347 346 342 340 337 334 332 331 331 331 331 330 330 329 327 326 324 324 323 322 321 320 319 318
192 194 201 187 178 168 162 157 151 149 143 144 144 136 125 123 131 137 137 140 143 134 136 146 145 134 128 115 119 107 101 100 125 145 142 174 197 230 253 227 250 292 290 309 318 314 1 336 55 64 50 40 26 20 11 5 351 351 350 339 340 341 339 337 335 334 330 328 327 328 327 327 326 325 323 322 321 321 320 319 318 318 317 317 316
176 197 189 182 178 171 161 155 154 143 148 145 141 130 132 138 141 135 140 140 130 123 134 136 125 123 127 123 109 109 108 107 120 126 142 152 167 194 252 253 221 255 278 302 315 4 10 53 63 69 51 40 29 15 11 349 342 348 343 334 335 339 339 337 336 332 329 326 326 326 326 325 324 323 321 319 319 318 318 317 316 316 315 315 315
193 188 164 171 165 151 151 146 149 148 136 126 127 129 130 127 128 129 126 130 125 125 126 129 126 125 119 122 120 111 119 127 131 132 146 161 157 177 195 338 7 227 318 246 308 231 268 71 40 64 55 31 21 10 352 343 339 342 336 337 335 335 335 334 331 328 323 322 322 323 324 322 320 319 318 319 319 319 319 318 315 314 314 312 310
175 156 170 161 155 145 137 137 142 137 140 141 140 138 141 134 130 127 120 125 127 126 131 123 121 122 119 123 119 123 121 124 126 131 139 141 153 149 148 115 46 327 327 310 350 352 65 27 69 69 34 30 19 356 330 327 334 333 329 333 331 329 331 330 328 322 319 319 321 322 321 321 320 319 319 319 319 319 318 317 316 315 313 312 310
167 164 157 163 149 147 143 141 140 138 136 133 131 137 141 134 133 119 108 95 98 121 131 114 123 122 123 128 124 123 117 116 118 125 132 142 149 151 145 140 134 145 336 321 14 303 28 44 346 287 42 22 350 334 327 325 327 326 327 326 325 325 328 328 324 321 319 320 321 322 322 321 320 320 321 322 322 320 319 318 316 314 313 312 311
164 163 158 151 144 141 138 135 135 133 131 119 129 135 131 119 101 91 115 100 100 109 112 125 130 126 124 115 118 114 121 116 111 115 123 129 131 120 104 114 154 140 156 301 296 233 267 54 62 325 355 348 336 325 319 320 320 323 325 323 323 327 325 322 321 320 319 321 321 322 323 322 321 322 323 323 321 320 320 318 316 314 314 313 311
153 153 153 146 144 142 140 138 137 132 122 129 132 130 125 109 100 121 137 134 133 130 129 128 132 125 118 108 111 109 116 111 114 116 119 122 121 120 112 103 101 122 136 154 313 276 144 277 306 351 324 329 328 315 310 314 321 322 323 325 326 324 319 320 318 319 320 322 324 324 324 323 321 322 323 322 322 320 319 317 315 315 314 313 312
164 160 156 153 149 144 146 144 138 134 126 109 119 119 98 113 134 139 146 138 130 130 129 120 129 121 115 110 112 119 129 123 114 116 117 111 115 111 112 111 103 93 120 161 219 255 226 299 303 309 325 322 321 320 320 313 309 313 325 324 328 327 329 328 317 316 317 320 321 320 319 321 323 323 322 322 321 321 319 316 315 314 314 313 311
159 158 154 155 151 148 149 152 145 144 134 116 128 118 133 140 145 145 151 140 128 123 126 119 116 116 115 112 117 121 136 114 114 112 100 96 94 89 93 102 101 101 117 144 245 286 290 183 332 317 320 325 318 327 323 325 324 327 325 328 329 331 329 326 319 311 312 316 318 317 318 321 324 323 323 322 321 319 318 316 315 316 314 312 311
164 157 155 154 152 150 151 152 146 142 142 147 150 145 144 146 145 150 147 136 126 129 130 123 128 119 122 120 120 123 129 114 114 103 103 102 100 103 99 95 95 91 102 127 269 268 296 313 320 315 312 327 312 328 334 328 327 328 324 323 323 323 323 323 319 313 311 316 317 319 320 322 322 321 321 322 322 320 318 318 317 316 314 312 311
165 159 154 155 155 153 149 150 145 147 150 154 157 149 146 145 144 148 150 143 140 138 136 136 135 137 122 118 122 125 130 107 101 102 105 102 107 108 112 107 97 90 78 66 12 286 300 312 312 324 329 326 321 324 327 320 313 318 320 323 321 318 312 318 317 313 312 318 319 318 319 321 323 320 320 323 322 318 317 316 316 315 314 313 312
155 154 154 153 152 151 149 151 154 152 153 153 153 149 147 147 149 147 148 144 141 138 134 138 141 137 131 121 127 128 127 112 116 114 113 118 115 115 108 97 95 85 63 52 9 311 309 312 314 326 320 320 321 319 317 313 316 318 317 312 318 323 327 321 320 313 308 312 314 315 317 320 321 318 318 323 322 318 318 318 317 316 316 314 313
156 148 146 150 147 150 154 158 157 156 157 153 146 140 139 145 147 146 144 136 135 128 128 130 136 133 129 123 133 136 134 121 126 122 126 120 122 114 104 97 83 72 52 35 358 329 309 307 308 311 308 307 306 310 331 336 329 324 318 315 317 316 315 321 321 320 319 317 310 304 305 310 318 313 312 319 318 316 318 319 318 317 315 313 311
151 156 151 157 157 157 156 156 152 150 149 151 146 143 143 141 139 135 131 127 123 120 121 121 123 123 123 126 133 140 144 134 134 133 129 127 124 113 105 93 80 63 53 30 357 336 320 309 313 314 319 324 324 325 347 343 335 331 330 325 317 309 319 328 329 322 312 306 316 311 312 315 321 315 311 318 320 319 319 318 317 316 313 310 309
152 151 154 148 152 147 145 143 149 149 150 146 141 139 139 138 138 135 129 121 118 112 112 115 113 111 113 121 129 134 132 133 135 136 135 131 123 114 103 95 78 67 47 20 355 340 329 322 316 314 317 321 324 321 337 339 329 330 331 329 325 327 327 330 327 324 314 296 289 297 304 301 306 300 301 309 318 318 318 318 316 313 309 310 314
153 153 151 148 137 138 144 147 146 146 145 141 135 137 139 141 140 136 131 128 123 115 112 108 109 111 115 119 121 122 123 127 129 133 137 130 128 115 107 90 82 63 44 13 355 343 333 329 325 325 328 324 323 320 322 336 337 333 337 326 314 318 321 323 327 329 322 318 318 317 316 314 316 309 303 307 314 319 317 313 313 311 313 317 318
138 142 138 139 136 134 137 143 146 147 146 146 146 144 141 140 142 134 134 130 127 124 117 112 110 112 114 112 114 119 117 119 122 127 130 135 131 117 108 97 83 66 36 13 356 342 334 329 323 325 326 328 328 330 333 339 339 325 323 325 311 310 315 314 319 330 329 328 323 316 318 321 318 322 319 316 317 317 319 321 319 323 323 321 320
134 134 134 139 144 147 144 140 141 144 143 141 145 145 143 144 140 131 124 127 128 127 126 122 119 117 114 115 115 114 112 116 122 123 121 117 117 114 112 103 82 63 32 10 350 338 329 326 326 326 325 324 325 325 320 319 319 321 321 321 314 315 317 314 310 317 333 331 324 317 314 316 317 316 318 320 327 326 334 332 329 326 323 322 322
141 143 141 141 139 141 142 144 145 145 142 140 143 143 143 139 132 134 134 131 130 129 132 134 136 133 124 119 118 116 116 123 128 128 122 120 118 110 105 93 73 60 34 358 330 322 321 315 315 316 312 310 314 318 315 316 321 325 319 316 312 316 319 323 320 319 1 351 327 321 313 318 324 318 315 319 328 330 332 330 328 328 326 324 325
143 139 142 142 137 139 140 142 145 143 136 143 141 138 139 139 138 132 133 133 135 135 139 138 137 135 135 131 128 128 132 137 136 125 127 136 138 113 108 92 59 26 356 316 307 311 312 308 308 306 308 303 310 316 318 324 323 320 316 312 311 313 313 312 310 310 322 335 322 317 310 315 325 317 315 318 328 328 329 329 327 328 327 326 328
140 148 145 141 143 145 149 148 141 138 135 143 136 138 139 140 138 130 130 129 132 137 140 141 141 141 139 137 136 141 144 148 144 144 151 193 213 223 210 69 33 356 323 311 305 300 298 296 298 299 297 308 310 314 324 321 318 311 314 313 313 310 308 304 302 308 314 323 317 316 312 314 323 318 313 317 327 328 329 331 327 327 329 331 330
153 148 148 149 150 152 152 145 135 135 135 142 138 139 138 137 136 130 125 127 128 134 140 141 142 143 146 145 147 150 157 164 171 180 198 205 200 194 158 42 359 324 306 301 311 313 309 293 291 291 301 311 307 313 318 317 314 311 312 310 313 311 312 304 303 301 304 316 320 317 304 309 324 318 313 317 326 326 330 327 324 327 333 332 330
159 159 155 153 155 152 151 148 134 134 138 144 142 141 140 138 134 128 125 122 124 129 132 135 138 141 142 146 151 151 157 168 175 203 215 196 168 158 137 26 1 11 20 350 325 310 299 301 299 301 308 317 312 311 311 313 307 306 306 303 309 309 302 303 302 303 308 318 324 317 300 309 324 315 310 319 326 326 327 322 324 331 333 332 332
137 137 143 149 155 155 152 144 136 134 145 146 144 144 143 139 134 127 128 129 130 132 131 135 136 136 142 149 153 158 160 161 186 204 185 151 152 156 128 74 48 15 336 303 291 290 319 325 319 314 312 310 311 310 312 314 315 311 306 304 301 300 311 314 312 318 317 325 327 315 310 312 321 317 311 317 326 324 322 324 326 332 333 333 334
156 162 160 158 158 154 152 150 142 140 146 150 148 148 146 143 135 130 130 128 131 133 138 139 138 142 154 160 160 161 164 173 202 197 184 114 118 112 97 78 41 340 300 292 317 359 340 325 321 321 320 321 323 323 323 320 315 316 312 309 308 319 316 315 313 320 315 325 322 327 321 313 326 328 318 317 322 321 320 322 324 328 331 332 337
165 162 151 146 158 161 154 153 151 146 149 153 151 152 151 150 146 142 144 136 131 135 138 143 145 150 156 163 166 165 177 190 212 164 109 103 109 106 99 79 345 313 298 26 349 322 330 328 326 329 332 336 335 331 324 318 318 320 311 304 311 318 312 311 309 314 310 312 313 334 320 316 325 332 324 318 311 329 325 325 329 328 329 333 336
147 141 148 149 150 154 152 144 146 145 148 154 156 156 156 155 148 135 139 136 139 148 149 150 158 157 162 170 180 187 190 204 189 138 108 100 116 112 110 126 283 306 289 359 332 331 325 334 340 347 345 349 339 326 315 316 315 311 305 302 309 314 310 310 311 312 314 311 328 337 324 326 333 332 338 327 321 314 80 337 328 328 330 337 336